Weather in Amur

Russia / Irkutsk Oblast     54°13′08″N   101°06′48″E
В апреле 2022 года жителям России запретили посещать сайт meteo.paraplan.net по решению Генеральной прокуратуры. Аудитория сайта уменьшилась в 10 раз. Владельцы сайта не видят смысла в поддержке погодного сервера в таких условиях. Сайт будет закрыт в октябре.
temp.,
°C
wind,
m/s
gust,
m/s
humid.,
%
clouds,
%
prec.,
mm/h
press.,
hPa
HPBL,
m
4 october, tue
tue423:00−2nne2277100 0.0 103729
02:00−2nnw2385100 0.0 103777
05:00−2nw1497100 0.3 1037232
08:00−2nw129599 0.6 1037145
11:00+1nw127199 0.1 1036803
14:00+2nw2263100 0.2 1035934
17:00+2nne22625 0.0 1034720
20:00−3ene11855 0.0 103510
5 october, wed
wed523:00−4se009045 0.0 103510
02:00−4sse00925 0.0 103510
05:00−5sse119458 0.0 103410
08:00−4sse12925 0.0 103350
11:00+3s12605 0.0 1031499
14:00+7w23465 0.0 1027994
17:00+6n125010 0.0 1026560
20:00+1se227296 0.0 102618
6 october, thu
thu623:000se2474100 0.0 102572
02:000e2275100 0.0 102451
05:000nnw3980100 0.0 1024351
08:00+1wnw2996100 0.3 1025656
11:00+2wnw4769100 0.7 1025867
14:00+3nw3558100 0.7 10251252
17:00+3nw2260100 0.0 1024958
20:00+1wnw2479100 0.0 102697
7 october, fri
fri723:00−1w2396100 0.0 102760
02:00−1nw1399100 0.3 1028128
05:00−1nw2795100 2.4 1030414
08:00−2wnw2996100 2.5 1031652
11:000wnw4787100 0.8 1032762
14:00+2nw457097 1.5 10321165
17:00+2nw357327 0.3 1033972
20:00−5nw11965 0.3 103711
8 october, sat
sat823:00−6w119812 0.0 103912
02:00−7wsw119973 0.0 103911
05:00−7sse119970 0.0 103919
08:00−6se259764 0.0 103897
11:00+1sse366788 0.0 1035543
14:00+4sse4552100 0.0 1032777
17:00+4sse2557100 0.0 1030226
20:00−1se2879100 0.0 1030127